sat.trackr.live / text

‹ back to catalog

NUSAT-50 (NANCY ROMAN)

NORAD 60493 · 2024-149AB

PAYLOAD ACTIVE UNKNOWN

§ Identity

Operator
Country
ARGN
Launch date
2024-08-16
Launch site
AFWTR
Launch vehicle
Mass (kg)
RCS (m²)

External: N2YO · Heavens-Above · Gunter

§ Orbital elements

Epoch: 2026-09-22T17:16:56.350560Z

Period
94.08 min
Inclination
97.3730°
Eccentricity
0.0002902
Mean motion
15.30600593 rev/d
Perigee alt
472.0 km
Apogee alt
476.0 km
Semi-major
6,852.2 km
B*
2.1799e-4
RAAN
346.3368°
Arg perigee
177.5663°
Mean anomaly
182.5593°
Rev number
11,704

§ Raw data

NUSAT-50 (NANCY ROMAN)1 60493U 24149AB  26265.72009665  .00006373  00000+0  21799-3 0  99972 60493  97.3730 346.3368 0002902 177.5663 182.5593 15.30600593117042

JSON: /api/v1/satellites/60493 · /tle

For live sub-satellite position, see the globe view (requires WebGL).

§ Visibility from observer

Set your observer location to see the next 7 days of passes ≥ 10°. The values pass through the URL so the page stays shareable.

No JS? Fill the form by hand. The geolocation button needs JavaScript.